Showing default

ALSAT 1B, 41785

Orbit data source: Space-Track

ALSAT 1B, 41785 is a payload satellite owned by ASAL (DZ) in SSO that was launched on Mon, 26 Sep 2016 UTC via a PSLV launch vehicle from the Sirharikota (SRI). Payload-class satellites include a variety of spacecraft equipped with specific instruments for various scientific and technological missions. These include communications satellites like Starlink; space stations such as the ISS; scientific satellites like the Hubble; Earth observation satellites from companies like Planet Labs, Umbra, and HawkEye 360; GPS; miniature CubeSats for education and research; and military/defense satellites.

Loading next visibility...
Identifier
41785, 2016-059C
Orbit
SSO
Country
Flag of DZDZ / ALG
Related business
Manufacturer
SSTL (Astrium)
Mission
Operational Civil Imaging
Bus & Motor
SSTL-100, Unknown motor
Mass
103 kg wet, 103 kg dry
Launch date (UTC)
2016-09-26 (9 years ago)
Launch vehicle
PSLV
Launch site
Sirharikota (SRI)
Object type
Payload
Rocket body
Debris
Shape & HBR
Box + 1 Ant, 3.3 m
Radar Cross Section
0.862 m², Medium (>0.1 m² and < 1m²)

Expand to show TLE details & history
Last TLE update: 12 hours ago

TLE from 12 hours ago
0 ALSAT 1B
1 41785U 16059C   25310.23563346  .00000587  00000-0  10096-3 0  9998
2 41785  97.7839 323.5969 0008411 215.9590 144.1053 14.72006322487770
Epoch: 2025-11-06T05:39Z
TLE epoch observation values (Epoch: 2025-11-06T05:39:18.730Z)
Latitude
-0.00003°
Longitude
-166.92799°
Altitude
662.479 km
Speed
7.523 km/s
True Right ascension
21h 34m 23s
True Declination
0° 00' 00"
Sunlit
Object was in daylight at epoch
Visualization orbit readout
Latitude
Unknown
Longitude
Unknown
Altitude
Unknown
Speed
Unknown
Apparent Right ascension
Unknown
Apparent Declination
Unknown
Sunlit
N/A
Visualization observer readout
Local Sidereal Time
14:09:34
Azimuth
Unknown
Elevation
Unknown
Doppler factor
Unknown
Orbital elements
Apogee altitude
657.63 km
Perigee altitude
645.804 km
Semi-major axis
7,029.854 km
Eccentricity
0.00084
Inclination
97.7839°
RAAN
323.5969°
Arg. of periapsis
215.959°
True anomaly
144.16176°
Mean anomaly
144.1053°
Eccentric anomaly
144.13354°
Mean motion
3.68234 °/min
Orbital period
97.76 mins
BSTAR
0.00010096
Loading maneuver chart data...
Computing Atmospheric mass density...
Loading historical data...
Loading historical data...
Loading historical data...
Loading historical data...
Loading historical data...
Loading historical data...
Loading historical data...

Documentation

Showing up to 5 results
|